This is the latest recevied weather packets stored in our database for station/object NK7E-1. If no packets are shown the sender has not sent any weather packets the latest 10 day(s).
| Time | Temp. | Humidity | Pressure | Rain* | Wind** | Luminosity | Snow |
|---|---|---|---|---|---|---|---|
| 1778019601 | 23.89° C | 28% | 1011.1 hPa | 0 mm | - | - | - |
| 1778019000 | 23.89° C | 27% | 1011.2 hPa | 0 mm | - | - | - |
| 1778018403 | 23.33° C | 28% | 1011.2 hPa | 0 mm | - | - | - |
| 1778017800 | 24.44° C | 27% | 1011.4 hPa | 0 mm | - | - | - |
| 1778017200 | 23.89° C | 29% | 1011.7 hPa | 0 mm | - | - | - |
| 1778016602 | 23.89° C | 28% | 1011.7 hPa | 0 mm | - | - | - |
| 1778016000 | 23.89° C | 31% | 1011.8 hPa | 0 mm | - | - | - |
| 1778015401 | 23.89° C | 31% | 1011.8 hPa | 0 mm | - | - | - |
| 1778014803 | 23.33° C | 30% | 1011.9 hPa | 0 mm | - | - | - |
| 1778014201 | 23.33° C | 30% | 1011.8 hPa | 0 mm | - | - | - |
| 1778013602 | 23.33° C | 31% | 1011.9 hPa | 0 mm | - | - | - |
| 1778013001 | 23.33° C | 32% | 1011.9 hPa | 0 mm | - | - | - |
| 1778012400 | 23.33° C | 31% | 1011.9 hPa | 0 mm | - | - | - |
| 1778011801 | 23.33° C | 32% | 1012.1 hPa | 0 mm | - | - | - |
| 1778011203 | 23.33° C | 34% | 1012 hPa | 0 mm | - | - | - |
| 1778010600 | 22.78° C | 36% | 1012.1 hPa | 0 mm | - | - | - |
| 1778010001 | 23.33° C | 37% | 1012.2 hPa | 0 mm | - | - | - |
| 1778009401 | 22.78° C | 39% | 1012.3 hPa | 0 mm | - | - | - |
| 1778008802 | 23.33° C | 41% | 1012.2 hPa | 0 mm | - | - | - |
| 1778008200 | 23.33° C | 43% | 1012.5 hPa | 0 mm | - | - | - |
| 1778007601 | 22.78° C | 42% | 1012.6 hPa | 0 mm | - | - | - |
| 1778007000 | 22.22° C | 45% | 1012.6 hPa | 0 mm | - | - | - |
| 1778006401 | 21.11° C | 50% | 1012.9 hPa | 0 mm | - | - | - |
| 1778005800 | 21.11° C | 52% | 1013.1 hPa | 0 mm | - | - | - |
| 1778005200 | 21.11° C | 52% | 1013.1 hPa | 0 mm | - | - | - |
* Rain latest hour (hover to see other rain measurements)
** Current wind speed in m/s (hover to see current wind gust speed)